Time,TemperatureF,DewpointF,PressureIn,WindDirection,WindDirectionDegrees,WindSpeedMPH,WindSpeedGustMPH,Humidity,HourlyPrecipIn,Conditions,Clouds,dailyrainin,SoftwareType,DateUTC
2013-07-19 00:04:00,78.3,73.4,29.92,SW,225,9.0,12.0,85,0.00,,,0.00,meteohub,2013-07-19 05:04:00,
2013-07-19 00:09:00,78.3,73.4,29.92,West,270,8.0,11.0,85,0.00,,,0.00,meteohub,2013-07-19 05:09:00,
2013-07-19 00:14:00,78.1,73.2,29.92,WSW,248,11.0,11.0,85,0.00,,,0.00,meteohub,2013-07-19 05:14:00,
2013-07-19 00:19:00,78.1,73.2,29.92,NW,315,10.0,13.0,85,0.00,,,0.00,meteohub,2013-07-19 05:19:00,
2013-07-19 00:24:00,77.7,73.2,29.91,SW,225,10.0,13.0,86,0.00,,,0.00,meteohub,2013-07-19 05:24:00,
2013-07-19 00:29:00,77.9,73.4,29.92,WNW,293,11.0,13.0,86,0.00,,,0.00,meteohub,2013-07-19 05:29:00,
2013-07-19 00:34:00,77.9,73.0,29.91,SW,225,14.0,14.0,85,0.00,,,0.00,meteohub,2013-07-19 05:34:00,
2013-07-19 00:40:00,77.9,73.0,29.91,SW,225,10.0,14.0,85,0.00,,,0.00,meteohub,2013-07-19 05:40:00,
2013-07-19 00:45:00,77.9,73.0,29.91,SW,225,13.0,15.0,85,0.00,,,0.00,meteohub,2013-07-19 05:45:00,
2013-07-19 00:50:00,77.9,73.0,29.91,SW,225,11.0,17.0,85,0.00,,,0.00,meteohub,2013-07-19 05:50:00,
2013-07-19 00:55:00,77.9,73.0,29.91,NW,315,9.0,17.0,85,0.00,,,0.00,meteohub,2013-07-19 05:55:00,
2013-07-19 01:00:00,77.7,72.9,29.91,West,270,10.0,17.0,85,0.00,,,0.00,meteohub,2013-07-19 06:00:00,
2013-07-19 01:05:00,77.7,72.9,29.91,West,270,10.0,15.0,85,0.00,,,0.00,meteohub,2013-07-19 06:05:00,
2013-07-19 01:10:00,77.5,73.0,29.91,NW,315,11.0,15.0,86,0.00,,,0.00,meteohub,2013-07-19 06:10:00,
2013-07-19 01:15:00,77.4,72.9,29.91,West,270,11.0,14.0,86,0.00,,,0.00,meteohub,2013-07-19 06:15:00,
2013-07-19 01:20:00,77.4,72.9,29.90,WNW,293,12.0,14.0,86,0.00,,,0.00,meteohub,2013-07-19 06:20:00,
2013-07-19 01:25:00,77.4,72.9,29.90,West,270,10.0,14.0,86,0.00,,,0.00,meteohub,2013-07-19 06:25:00,
2013-07-19 01:30:00,77.2,72.7,29.90,SW,225,14.0,14.0,86,0.00,,,0.00,meteohub,2013-07-19 06:30:00,
2013-07-19 01:35:00,77.2,72.7,29.91,NW,315,10.0,14.0,86,0.00,,,0.00,meteohub,2013-07-19 06:35:00,
2013-07-19 01:40:00,77.0,72.5,29.90,West,270,9.0,15.0,86,0.00,,,0.00,meteohub,2013-07-19 06:40:00,
2013-07-19 01:45:00,77.0,72.5,29.90,SW,225,10.0,15.0,86,0.00,,,0.00,meteohub,2013-07-19 06:45:00,
2013-07-19 01:51:00,77.0,72.5,29.90,West,270,10.0,14.0,86,0.00,,,0.00,meteohub,2013-07-19 06:51:00,
2013-07-19 01:56:00,76.8,72.3,29.90,NNW,338,9.0,14.0,86,0.00,,,0.00,meteohub,2013-07-19 06:56:00,
2013-07-19 02:01:00,76.8,72.3,29.90,SW,225,8.0,13.0,86,0.00,,,0.00,meteohub,2013-07-19 07:01:00,
2013-07-19 02:06:00,76.8,72.3,29.90,SW,225,8.0,11.0,86,0.00,,,0.00,meteohub,2013-07-19 07:06:00,
2013-07-19 02:11:00,76.3,72.1,29.90,WSW,248,8.0,11.0,87,0.00,,,0.00,meteohub,2013-07-19 07:11:00,
2013-07-19 02:16:00,76.1,72.3,29.90,SW,225,7.0,11.0,88,0.00,,,0.00,meteohub,2013-07-19 07:16:00,
2013-07-19 02:21:00,75.9,72.1,29.90,SW,225,8.0,11.0,88,0.00,,,0.00,meteohub,2013-07-19 07:21:00,
2013-07-19 02:26:00,75.9,72.1,29.90,West,270,9.0,11.0,88,0.00,,,0.00,meteohub,2013-07-19 07:26:00,
2013-07-19 02:31:00,75.7,72.0,29.89,NW,315,8.0,12.0,88,0.00,,,0.00,meteohub,2013-07-19 07:31:00,
2013-07-19 02:36:00,75.7,72.0,29.89,NE,45,10.0,12.0,88,0.00,,,0.00,meteohub,2013-07-19 07:36:00,
2013-07-19 02:41:00,75.7,72.0,29.89,SW,225,10.0,12.0,88,0.00,,,0.00,meteohub,2013-07-19 07:41:00,
2013-07-19 02:46:00,75.6,71.8,29.89,SW,225,11.0,12.0,88,0.00,,,0.00,meteohub,2013-07-19 07:46:00,
2013-07-19 02:51:00,75.4,71.6,29.89,SW,225,9.0,11.0,88,0.00,,,0.00,meteohub,2013-07-19 07:51:00,
2013-07-19 02:57:00,75.4,72.0,29.89,NW,315,11.0,11.0,89,0.00,,,0.00,meteohub,2013-07-19 07:57:00,
2013-07-19 03:02:00,75.2,71.8,29.89,West,270,10.0,11.0,89,0.00,,,0.00,meteohub,2013-07-19 08:02:00,
2013-07-19 03:03:00,75.2,71.8,29.89,West,270,10.0,11.0,89,0.00,,,0.00,meteohub,2013-07-19 08:03:00,
2013-07-19 03:08:00,75.0,71.6,29.88,West,270,8.0,11.0,89,0.00,,,0.00,meteohub,2013-07-19 08:08:00,
2013-07-19 03:13:00,75.0,71.6,29.88,SW,225,8.0,11.0,89,0.00,,,0.00,meteohub,2013-07-19 08:13:00,
2013-07-19 03:18:00,74.7,71.6,29.88,West,270,8.0,10.0,90,0.00,,,0.00,meteohub,2013-07-19 08:18:00,
2013-07-19 03:23:00,74.7,71.6,29.87,SW,225,8.0,10.0,90,0.00,,,0.00,meteohub,2013-07-19 08:23:00,
2013-07-19 03:28:00,74.5,71.4,29.87,SW,225,8.0,10.0,90,0.00,,,0.00,meteohub,2013-07-19 08:28:00,
2013-07-19 03:34:00,74.3,71.2,29.87,SW,225,8.0,9.0,90,0.00,,,0.00,meteohub,2013-07-19 08:34:00,
2013-07-19 03:39:00,74.1,71.1,29.87,SW,225,8.0,9.0,90,0.00,,,0.00,meteohub,2013-07-19 08:39:00,
2013-07-19 03:44:00,74.1,71.1,29.87,SW,225,8.0,9.0,90,0.00,,,0.00,meteohub,2013-07-19 08:44:00,
2013-07-19 03:49:00,74.1,71.1,29.87,West,270,8.0,9.0,90,0.00,,,0.00,meteohub,2013-07-19 08:49:00,
2013-07-19 03:54:00,74.1,71.1,29.86,West,270,9.0,9.0,90,0.00,,,0.00,meteohub,2013-07-19 08:54:00,
2013-07-19 03:59:00,74.3,70.9,29.86,SW,225,8.0,9.0,89,0.00,,,0.00,meteohub,2013-07-19 08:59:00,
2013-07-19 04:04:00,74.3,70.9,29.86,SW,225,8.0,10.0,89,0.00,,,0.00,meteohub,2013-07-19 09:04:00,
2013-07-19 04:09:00,74.3,70.5,29.86,WSW,248,9.0,10.0,88,0.00,,,0.00,meteohub,2013-07-19 09:09:00,
2013-07-19 04:14:00,74.3,70.5,29.86,SW,225,8.0,11.0,88,0.00,,,0.00,meteohub,2013-07-19 09:14:00,
2013-07-19 04:19:00,74.5,70.3,29.86,West,270,8.0,11.0,87,0.00,,,0.00,meteohub,2013-07-19 09:19:00,
2013-07-19 04:24:00,74.5,70.3,29.86,SW,225,9.0,11.0,87,0.00,,,0.00,meteohub,2013-07-19 09:24:00,
2013-07-19 04:29:00,74.7,70.2,29.86,SW,225,12.0,12.0,86,0.00,,,0.00,meteohub,2013-07-19 09:29:00,
2013-07-19 04:34:00,74.7,70.2,29.86,SW,225,11.0,11.0,86,0.00,,,0.00,meteohub,2013-07-19 09:34:00,
2013-07-19 04:40:00,74.7,70.2,29.86,SW,225,8.0,12.0,86,0.00,,,0.00,meteohub,2013-07-19 09:40:00,
2013-07-19 04:45:00,74.5,70.0,29.86,West,270,11.0,12.0,86,0.00,,,0.00,meteohub,2013-07-19 09:45:00,
2013-07-19 04:50:00,74.7,69.8,29.86,West,270,11.0,12.0,85,0.00,,,0.00,meteohub,2013-07-19 09:50:00,
2013-07-19 04:55:00,74.8,70.0,29.85,SW,225,11.0,11.0,85,0.00,,,0.00,meteohub,2013-07-19 09:55:00,
2013-07-19 05:00:00,74.8,70.0,29.85,West,270,10.0,15.0,85,0.00,,,0.00,meteohub,2013-07-19 10:00:00,
2013-07-19 05:05:00,74.8,70.0,29.86,West,270,10.0,15.0,85,0.00,,,0.00,meteohub,2013-07-19 10:05:00,
2013-07-19 05:10:00,74.8,69.6,29.86,West,270,10.0,15.0,84,0.00,,,0.00,meteohub,2013-07-19 10:10:00,
2013-07-19 05:15:00,74.8,69.6,29.86,West,270,11.0,12.0,84,0.00,,,0.00,meteohub,2013-07-19 10:15:00,
2013-07-19 05:20:00,74.8,69.6,29.86,NW,315,11.0,12.0,84,0.00,,,0.00,meteohub,2013-07-19 10:20:00,
2013-07-19 05:25:00,74.8,69.3,29.86,WSW,248,12.0,12.0,83,0.00,,,0.00,meteohub,2013-07-19 10:25:00,
2013-07-19 05:30:00,74.8,69.3,29.85,SW,225,12.0,12.0,83,0.00,,,0.00,meteohub,2013-07-19 10:30:00,
2013-07-19 05:35:00,75.0,69.4,29.85,SW,225,9.0,12.0,83,0.00,,,0.00,meteohub,2013-07-19 10:35:00,
2013-07-19 05:41:00,74.8,69.3,29.85,West,270,11.0,12.0,83,0.00,,,0.00,meteohub,2013-07-19 10:41:00,
2013-07-19 05:46:00,75.0,69.4,29.85,WSW,248,9.0,12.0,83,0.00,,,0.00,meteohub,2013-07-19 10:46:00,
2013-07-19 05:51:00,75.0,69.4,29.85,West,270,11.0,14.0,83,0.00,,,0.00,meteohub,2013-07-19 10:51:00,
2013-07-19 05:56:00,75.0,69.4,29.85,WSW,248,10.0,14.0,83,0.00,,,0.00,meteohub,2013-07-19 10:56:00,
2013-07-19 06:01:00,75.0,69.4,29.86,West,270,11.0,14.0,83,0.00,,,0.00,meteohub,2013-07-19 11:01:00,
2013-07-19 06:06:00,75.2,69.3,29.86,West,270,11.0,13.0,82,0.00,,,0.00,meteohub,2013-07-19 11:06:00,
2013-07-19 06:11:00,75.4,69.4,29.86,SW,225,10.0,13.0,82,0.00,,,0.00,meteohub,2013-07-19 11:11:00,
2013-07-19 06:16:00,75.4,69.4,29.85,West,270,10.0,14.0,82,0.00,,,0.00,meteohub,2013-07-19 11:16:00,
2013-07-19 06:21:00,75.6,69.6,29.86,West,270,15.0,15.0,82,0.00,,,0.00,meteohub,2013-07-19 11:21:00,
2013-07-19 06:26:00,75.9,69.3,29.85,SW,225,16.0,16.0,80,0.00,,,0.00,meteohub,2013-07-19 11:26:00,
2013-07-19 06:31:00,76.1,69.4,29.85,WNW,293,15.0,16.0,80,0.00,,,0.00,meteohub,2013-07-19 11:31:00,
2013-07-19 06:36:00,76.1,69.4,29.85,SW,225,12.0,16.0,80,0.00,,,0.00,meteohub,2013-07-19 11:36:00,
2013-07-19 06:41:00,76.1,69.4,29.85,NW,315,15.0,16.0,80,0.00,,,0.00,meteohub,2013-07-19 11:41:00,
2013-07-19 06:47:00,76.3,69.6,29.85,NW,315,13.0,16.0,80,0.00,,,0.00,meteohub,2013-07-19 11:47:00,
2013-07-19 06:52:00,76.3,69.6,29.85,NW,315,14.0,16.0,80,0.00,,,0.00,meteohub,2013-07-19 11:52:00,
2013-07-19 06:57:00,76.6,69.6,29.85,SW,225,15.0,17.0,79,0.00,,,0.00,meteohub,2013-07-19 11:57:00,
2013-07-19 07:02:00,76.6,69.6,29.85,West,270,14.0,17.0,79,0.00,,,0.00,meteohub,2013-07-19 12:02:00,
2013-07-19 07:07:00,76.6,69.6,29.86,North,0,17.0,17.0,79,0.00,,,0.00,meteohub,2013-07-19 12:07:00,
2013-07-19 07:12:00,76.5,69.4,29.85,SW,225,11.0,17.0,79,0.00,,,0.00,meteohub,2013-07-19 12:12:00,
2013-07-19 07:17:00,77.0,69.6,29.86,West,270,14.0,17.0,78,0.00,,,0.00,meteohub,2013-07-19 12:17:00,
2013-07-19 07:22:00,77.0,69.6,29.87,SW,225,11.0,17.0,78,0.00,,,0.00,meteohub,2013-07-19 12:22:00,
2013-07-19 07:27:00,77.0,69.6,29.87,SW,225,11.0,15.0,78,0.00,,,0.00,meteohub,2013-07-19 12:27:00,
2013-07-19 07:32:00,77.2,69.8,29.87,NNW,338,10.0,15.0,78,0.00,,,0.00,meteohub,2013-07-19 12:32:00,
2013-07-19 07:37:00,77.2,69.4,29.87,West,270,15.0,15.0,77,0.00,,,0.00,meteohub,2013-07-19 12:37:00,
2013-07-19 07:42:00,77.4,69.6,29.87,SW,225,11.0,15.0,77,0.00,,,0.00,meteohub,2013-07-19 12:42:00,
2013-07-19 07:47:00,77.5,69.8,29.87,SW,225,11.0,15.0,77,0.00,,,0.00,meteohub,2013-07-19 12:47:00,
2013-07-19 07:52:00,77.7,70.0,29.87,West,270,16.0,16.0,77,0.00,,,0.00,meteohub,2013-07-19 12:52:00,
2013-07-19 07:57:00,77.7,70.0,29.86,SW,225,12.0,16.0,77,0.00,,,0.00,meteohub,2013-07-19 12:57:00,
2013-07-19 08:02:00,77.5,70.2,29.86,WSW,248,11.0,16.0,78,0.00,,,0.00,meteohub,2013-07-19 13:02:00,
2013-07-19 08:07:00,78.1,71.1,29.86,West,270,7.0,16.0,79,0.00,,,0.00,meteohub,2013-07-19 13:07:00,
2013-07-19 08:12:00,78.8,71.4,29.86,WSW,248,9.0,14.0,78,0.00,,,0.00,meteohub,2013-07-19 13:12:00,
2013-07-19 08:17:00,79.3,71.4,29.85,West,270,11.0,12.0,77,0.00,,,0.00,meteohub,2013-07-19 13:17:00,
2013-07-19 08:22:00,79.7,72.1,29.86,West,270,10.0,12.0,78,0.00,,,0.00,meteohub,2013-07-19 13:22:00,
2013-07-19 08:27:00,79.9,71.6,29.86,SW,225,11.0,12.0,76,0.00,,,0.00,meteohub,2013-07-19 13:27:00,
2013-07-19 08:32:00,80.4,71.8,29.86,SW,225,12.0,13.0,75,0.00,,,0.00,meteohub,2013-07-19 13:32:00,
2013-07-19 08:37:00,80.4,71.4,29.86,WNW,293,11.0,15.0,74,0.00,,,0.00,meteohub,2013-07-19 13:37:00,
2013-07-19 08:42:00,80.2,71.2,29.86,West,270,14.0,15.0,74,0.00,,,0.00,meteohub,2013-07-19 13:42:00,
2013-07-19 08:47:00,80.4,70.9,29.86,SW,225,14.0,17.0,73,0.00,,,0.00,meteohub,2013-07-19 13:47:00,
2013-07-19 08:52:00,81.1,71.6,29.86,West,270,11.0,17.0,73,0.00,,,0.00,meteohub,2013-07-19 13:52:00,
2013-07-19 08:57:00,81.7,71.4,29.86,WSW,248,14.0,15.0,71,0.00,,,0.00,meteohub,2013-07-19 13:57:00,
2013-07-19 09:02:00,81.5,71.6,29.86,SW,225,11.0,15.0,72,0.00,,,0.00,meteohub,2013-07-19 14:02:00,
2013-07-19 09:07:00,81.5,71.2,29.86,West,270,14.0,15.0,71,0.00,,,0.00,meteohub,2013-07-19 14:07:00,
2013-07-19 09:12:00,81.1,70.9,29.86,SW,225,17.0,17.0,71,0.00,,,0.00,meteohub,2013-07-19 14:12:00,
2013-07-19 09:17:00,81.3,71.4,29.85,NW,315,10.0,21.0,72,0.00,,,0.00,meteohub,2013-07-19 14:17:00,
2013-07-19 09:22:00,81.7,71.4,29.85,NW,315,12.0,21.0,71,0.00,,,0.00,meteohub,2013-07-19 14:22:00,
2013-07-19 09:27:00,81.5,70.7,29.85,SW,225,18.0,21.0,70,0.00,,,0.00,meteohub,2013-07-19 14:27:00,
2013-07-19 09:33:00,81.5,71.2,29.85,West,270,12.0,18.0,71,0.00,,,0.00,meteohub,2013-07-19 14:33:00,
2013-07-19 09:38:00,81.1,71.2,29.85,SW,225,11.0,18.0,72,0.00,,,0.00,meteohub,2013-07-19 14:38:00,
2013-07-19 09:43:00,81.0,71.4,29.84,West,270,11.0,18.0,73,0.00,,,0.00,meteohub,2013-07-19 14:43:00,
2013-07-19 09:48:00,81.3,71.8,29.84,West,270,10.0,18.0,73,0.00,,,0.00,meteohub,2013-07-19 14:48:00,
2013-07-19 09:53:00,82.8,72.3,29.83,NW,315,13.0,15.0,71,0.00,,,0.00,meteohub,2013-07-19 14:53:00,
2013-07-19 09:58:00,83.1,72.0,29.84,NW,315,14.0,17.0,69,0.00,,,0.00,meteohub,2013-07-19 14:58:00,
2013-07-19 10:03:00,82.2,71.4,29.83,SW,225,15.0,19.0,70,0.00,,,0.00,meteohub,2013-07-19 15:03:00,
2013-07-19 10:08:00,81.9,71.6,29.84,NW,315,15.0,19.0,71,0.00,,,0.00,meteohub,2013-07-19 15:08:00,
2013-07-19 10:13:00,82.6,72.7,29.85,SW,225,9.0,19.0,72,0.00,,,0.00,meteohub,2013-07-19 15:13:00,
2013-07-19 10:18:00,82.8,72.0,29.85,SW,225,15.0,19.0,70,0.00,,,0.00,meteohub,2013-07-19 15:18:00,
2013-07-19 10:23:00,82.2,71.4,29.84,NW,315,15.0,19.0,70,0.00,,,0.00,meteohub,2013-07-19 15:23:00,
2013-07-19 10:28:00,82.0,71.8,29.84,West,270,11.0,17.0,71,0.00,,,0.00,meteohub,2013-07-19 15:28:00,
2013-07-19 10:33:00,82.2,72.3,29.84,SW,225,11.0,17.0,72,0.00,,,0.00,meteohub,2013-07-19 15:33:00,
2013-07-19 10:39:00,82.4,71.6,29.84,West,270,16.0,17.0,70,0.00,,,0.00,meteohub,2013-07-19 15:39:00,
2013-07-19 10:44:00,82.2,71.4,29.84,West,270,17.0,17.0,70,0.00,,,0.00,meteohub,2013-07-19 15:44:00,
2013-07-19 10:49:00,82.2,72.3,29.84,SW,225,14.0,17.0,72,0.00,,,0.00,meteohub,2013-07-19 15:49:00,
2013-07-19 10:54:00,82.0,72.1,29.84,West,270,15.0,17.0,72,0.00,,,0.00,meteohub,2013-07-19 15:54:00,
2013-07-19 10:59:00,81.5,72.0,29.84,SW,225,11.0,17.0,73,0.00,,,0.00,meteohub,2013-07-19 15:59:00,
2013-07-19 11:04:00,81.3,71.8,29.84,West,270,13.0,17.0,73,0.00,,,0.00,meteohub,2013-07-19 16:04:00,
2013-07-19 11:09:00,81.1,71.2,29.84,WSW,248,10.0,17.0,72,0.00,,,0.00,meteohub,2013-07-19 16:09:00,
2013-07-19 11:14:00,81.0,71.4,29.84,WSW,248,10.0,17.0,73,0.00,,,0.00,meteohub,2013-07-19 16:14:00,
2013-07-19 11:19:00,81.1,71.6,29.84,NW,315,12.0,17.0,73,0.00,,,0.00,meteohub,2013-07-19 16:19:00,
2013-07-19 11:24:00,81.5,72.3,29.84,West,270,8.0,17.0,74,0.00,,,0.00,meteohub,2013-07-19 16:24:00,
2013-07-19 11:29:00,82.2,72.3,29.84,SW,225,11.0,17.0,72,0.00,,,0.00,meteohub,2013-07-19 16:29:00,
2013-07-19 11:34:00,82.8,72.3,29.83,West,270,12.0,15.0,71,0.00,,,0.00,meteohub,2013-07-19 16:34:00,
2013-07-19 11:39:00,83.5,73.6,29.83,NW,315,13.0,16.0,72,0.00,,,0.00,meteohub,2013-07-19 16:39:00,
2013-07-19 11:45:00,84.2,73.4,29.83,West,270,17.0,17.0,70,0.00,,,0.00,meteohub,2013-07-19 16:45:00,
2013-07-19 11:50:00,84.2,72.5,29.83,West,270,14.0,17.0,68,0.00,,,0.00,meteohub,2013-07-19 16:50:00,
2013-07-19 11:55:00,84.7,73.4,29.82,West,270,13.0,19.0,69,0.00,,,0.00,meteohub,2013-07-19 16:55:00,
2013-07-19 12:00:00,85.1,73.4,29.83,WNW,293,15.0,19.0,68,0.00,,,0.00,meteohub,2013-07-19 17:00:00,
2013-07-19 12:05:00,85.5,72.9,29.83,West,270,16.0,20.0,66,0.00,,,0.00,meteohub,2013-07-19 17:05:00,
2013-07-19 12:10:00,85.8,73.6,29.83,NW,315,19.0,20.0,67,0.00,,,0.00,meteohub,2013-07-19 17:10:00,
2013-07-19 12:15:00,86.2,73.0,29.82,SW,225,18.0,20.0,65,0.00,,,0.00,meteohub,2013-07-19 17:15:00,
2013-07-19 12:20:00,86.0,72.9,29.82,SW,225,20.0,22.0,65,0.00,,,0.00,meteohub,2013-07-19 17:20:00,
2013-07-19 12:25:00,86.2,73.0,29.82,SW,225,21.0,22.0,65,0.00,,,0.00,meteohub,2013-07-19 17:25:00,
2013-07-19 12:30:00,86.2,73.0,29.82,SW,225,19.0,23.0,65,0.00,,,0.00,meteohub,2013-07-19 17:30:00,
2013-07-19 12:35:00,84.9,72.3,29.82,West,270,17.0,23.0,66,0.00,,,0.00,meteohub,2013-07-19 17:35:00,
2013-07-19 12:41:00,85.3,73.6,29.82,West,270,14.0,23.0,68,0.00,,,0.00,meteohub,2013-07-19 17:41:00,
2013-07-19 12:46:00,85.8,72.7,29.82,West,270,15.0,21.0,65,0.00,,,0.00,meteohub,2013-07-19 17:46:00,
2013-07-19 12:51:00,85.8,73.2,29.82,NW,315,12.0,17.0,66,0.00,,,0.00,meteohub,2013-07-19 17:51:00,
2013-07-19 12:56:00,86.4,74.1,29.82,West,270,10.0,17.0,67,0.00,,,0.00,meteohub,2013-07-19 17:56:00,
2013-07-19 13:01:00,86.0,72.9,29.82,SW,225,15.0,22.0,65,0.00,,,0.00,meteohub,2013-07-19 18:01:00,
2013-07-19 13:06:00,86.2,72.5,29.81,West,270,17.0,22.0,64,0.00,,,0.00,meteohub,2013-07-19 18:06:00,
2013-07-19 13:11:00,85.6,71.1,29.82,West,270,14.0,22.0,62,0.00,,,0.00,meteohub,2013-07-19 18:11:00,
2013-07-19 13:16:00,85.5,72.0,29.81,NW,315,13.0,21.0,64,0.00,,,0.00,meteohub,2013-07-19 18:16:00,
2013-07-19 13:21:00,85.8,73.2,29.81,SW,225,19.0,21.0,66,0.00,,,0.00,meteohub,2013-07-19 18:21:00,
2013-07-19 13:26:00,86.5,73.4,29.81,West,270,17.0,19.0,65,0.00,,,0.00,meteohub,2013-07-19 18:26:00,
2013-07-19 13:31:00,86.7,73.0,29.81,SW,225,17.0,19.0,64,0.00,,,0.00,meteohub,2013-07-19 18:31:00,
2013-07-19 13:36:00,87.4,73.2,29.81,North,0,16.0,19.0,63,0.00,,,0.00,meteohub,2013-07-19 18:36:00,
2013-07-19 13:41:00,87.4,72.9,29.81,West,270,14.0,19.0,62,0.00,,,0.00,meteohub,2013-07-19 18:41:00,
2013-07-19 13:47:00,87.8,73.2,29.81,SW,225,19.0,19.0,62,0.00,,,0.00,meteohub,2013-07-19 18:47:00,
2013-07-19 13:52:00,87.4,73.2,29.81,South,180,17.0,21.0,63,0.00,,,0.00,meteohub,2013-07-19 18:52:00,
2013-07-19 13:57:00,87.8,74.1,29.81,West,270,15.0,21.0,64,0.00,,,0.00,meteohub,2013-07-19 18:57:00,
2013-07-19 14:02:00,88.2,73.4,29.81,West,270,16.0,21.0,62,0.00,,,0.00,meteohub,2013-07-19 19:02:00,
2013-07-19 14:07:00,88.2,73.9,29.81,West,270,12.0,21.0,63,0.00,,,0.00,meteohub,2013-07-19 19:07:00,
2013-07-19 14:12:00,88.5,73.4,29.80,West,270,16.0,23.0,61,0.00,,,0.00,meteohub,2013-07-19 19:12:00,
2013-07-19 14:17:00,88.5,74.3,29.80,West,270,15.0,23.0,63,0.00,,,0.00,meteohub,2013-07-19 19:17:00,
2013-07-19 14:22:00,88.3,74.7,29.80,WSW,248,15.0,21.0,64,0.00,,,0.00,meteohub,2013-07-19 19:22:00,
2013-07-19 14:27:00,88.3,75.0,29.80,NW,315,17.0,21.0,65,0.00,,,0.00,meteohub,2013-07-19 19:27:00,
2013-07-19 14:32:00,88.3,75.0,29.80,West,270,16.0,21.0,65,0.00,,,0.00,meteohub,2013-07-19 19:32:00,
2013-07-19 14:37:00,88.0,75.2,29.80,SW,225,16.0,22.0,66,0.00,,,0.00,meteohub,2013-07-19 19:37:00,
2013-07-19 14:42:00,88.0,74.7,29.80,SW,225,19.0,22.0,65,0.00,,,0.00,meteohub,2013-07-19 19:42:00,
2013-07-19 14:47:00,87.6,74.3,29.80,SW,225,18.0,23.0,65,0.00,,,0.00,meteohub,2013-07-19 19:47:00,
2013-07-19 14:52:00,87.4,75.2,29.80,SW,225,20.0,23.0,67,0.00,,,0.00,meteohub,2013-07-19 19:52:00,
2013-07-19 14:57:00,87.6,74.3,29.80,West,270,19.0,23.0,65,0.00,,,0.00,meteohub,2013-07-19 19:57:00,
2013-07-19 15:02:00,88.0,74.7,29.81,SW,225,14.0,23.0,65,0.00,,,0.00,meteohub,2013-07-19 20:02:00,
2013-07-19 15:07:00,88.5,75.2,29.81,WNW,293,15.0,21.0,65,0.00,,,0.00,meteohub,2013-07-19 20:07:00,
2013-07-19 15:12:00,88.0,75.2,29.81,North,0,16.0,21.0,66,0.00,,,0.00,meteohub,2013-07-19 20:12:00,
2013-07-19 15:17:00,88.2,75.4,29.80,West,270,15.0,21.0,66,0.00,,,0.00,meteohub,2013-07-19 20:17:00,
2013-07-19 15:22:00,88.0,74.7,29.81,North,0,22.0,22.0,65,0.00,,,0.00,meteohub,2013-07-19 20:22:00,
2013-07-19 15:27:00,87.4,75.2,29.80,SW,225,18.0,22.0,67,0.00,,,0.00,meteohub,2013-07-19 20:27:00,
2013-07-19 15:32:00,87.1,74.8,29.80,West,270,23.0,23.0,67,0.00,,,0.00,meteohub,2013-07-19 20:32:00,
2013-07-19 15:37:00,87.1,75.2,29.80,SW,225,17.0,23.0,68,0.00,,,0.00,meteohub,2013-07-19 20:37:00,
2013-07-19 15:42:00,87.4,75.2,29.80,WSW,248,14.0,23.0,67,0.00,,,0.00,meteohub,2013-07-19 20:42:00,
2013-07-19 15:47:00,86.9,74.7,29.80,West,270,11.0,23.0,67,0.00,,,0.00,meteohub,2013-07-19 20:47:00,
2013-07-19 15:52:00,87.4,75.2,29.80,SW,225,12.0,20.0,67,0.00,,,0.00,meteohub,2013-07-19 20:52:00,
2013-07-19 15:57:00,88.2,73.9,29.79,West,270,15.0,20.0,63,0.00,,,0.00,meteohub,2013-07-19 20:57:00,
2013-07-19 16:02:00,88.2,73.9,29.79,West,270,17.0,17.0,63,0.00,,,0.00,meteohub,2013-07-19 21:02:00,
2013-07-19 16:07:00,88.0,74.3,29.79,West,270,12.0,17.0,64,0.00,,,0.00,meteohub,2013-07-19 21:07:00,
2013-07-19 16:12:00,88.3,75.0,29.79,West,270,12.0,17.0,65,0.00,,,0.00,meteohub,2013-07-19 21:12:00,
2013-07-19 16:17:00,88.9,75.6,29.79,WSW,248,16.0,17.0,65,0.00,,,0.00,meteohub,2013-07-19 21:17:00,
2013-07-19 16:22:00,89.1,75.2,29.79,SW,225,15.0,17.0,64,0.00,,,0.00,meteohub,2013-07-19 21:22:00,
2013-07-19 16:27:00,89.2,75.0,29.80,WNW,293,17.0,18.0,63,0.00,,,0.00,meteohub,2013-07-19 21:27:00,
2013-07-19 16:32:00,88.7,73.9,29.79,NW,315,15.0,18.0,62,0.00,,,0.00,meteohub,2013-07-19 21:32:00,
2013-07-19 16:37:00,87.3,74.1,29.79,West,270,15.0,17.0,65,0.00,,,0.00,meteohub,2013-07-19 21:37:00,
2013-07-19 16:42:00,86.7,74.5,29.79,SW,225,10.0,17.0,67,0.00,,,0.00,meteohub,2013-07-19 21:42:00,
2013-07-19 16:47:00,86.7,74.8,29.79,SW,225,10.0,17.0,68,0.00,,,0.00,meteohub,2013-07-19 21:47:00,
2013-07-19 16:52:00,86.7,74.5,29.79,North,0,13.0,15.0,67,0.00,,,0.00,meteohub,2013-07-19 21:52:00,
2013-07-19 16:57:00,86.7,74.8,29.79,West,270,15.0,15.0,68,0.00,,,0.00,meteohub,2013-07-19 21:57:00,
2013-07-19 17:02:00,86.4,74.5,29.79,WSW,248,11.0,15.0,68,0.00,,,0.00,meteohub,2013-07-19 22:02:00,
2013-07-19 17:07:00,86.2,74.8,29.79,SW,225,9.0,15.0,69,0.00,,,0.00,meteohub,2013-07-19 22:07:00,
2013-07-19 17:12:00,87.3,75.4,29.79,West,270,15.0,15.0,68,0.00,,,0.00,meteohub,2013-07-19 22:12:00,
2013-07-19 17:17:00,87.8,75.0,29.79,SW,225,15.0,16.0,66,0.00,,,0.00,meteohub,2013-07-19 22:17:00,
2013-07-19 17:22:00,88.0,74.7,29.78,West,270,13.0,17.0,65,0.00,,,0.00,meteohub,2013-07-19 22:22:00,
2013-07-19 17:27:00,88.2,74.8,29.78,NNW,338,15.0,17.0,65,0.00,,,0.00,meteohub,2013-07-19 22:27:00,
2013-07-19 17:32:00,88.0,75.2,29.79,West,270,10.0,19.0,66,0.00,,,0.00,meteohub,2013-07-19 22:32:00,
2013-07-19 17:37:00,88.2,74.8,29.79,West,270,12.0,19.0,65,0.00,,,0.00,meteohub,2013-07-19 22:37:00,
2013-07-19 17:42:00,88.3,75.6,29.78,NW,315,17.0,19.0,66,0.00,,,0.00,meteohub,2013-07-19 22:42:00,
2013-07-19 17:47:00,88.3,75.6,29.78,SW,225,16.0,17.0,66,0.00,,,0.00,meteohub,2013-07-19 22:47:00,
2013-07-19 17:52:00,88.2,75.4,29.78,West,270,15.0,17.0,66,0.00,,,0.00,meteohub,2013-07-19 22:52:00,
2013-07-19 17:57:00,86.9,74.1,29.78,NW,315,13.0,17.0,66,0.00,,,0.00,meteohub,2013-07-19 22:57:00,
2013-07-19 18:02:00,86.0,72.9,29.78,NW,315,11.0,20.0,65,0.00,,,0.00,meteohub,2013-07-19 23:02:00,
2013-07-19 18:07:00,85.1,72.9,29.78,North,0,6.0,20.0,67,0.00,,,0.00,meteohub,2013-07-19 23:07:00,
2013-07-19 18:12:00,84.4,73.0,29.78,NW,315,5.0,20.0,69,0.00,,,0.00,meteohub,2013-07-19 23:12:00,
2013-07-19 18:17:00,84.7,73.4,29.78,West,270,9.0,11.0,69,0.00,,,0.00,meteohub,2013-07-19 23:17:00,
2013-07-19 18:22:00,85.8,73.2,29.78,NW,315,11.0,11.0,66,0.00,,,0.00,meteohub,2013-07-19 23:22:00,
2013-07-19 18:27:00,86.7,72.1,29.78,West,270,11.0,11.0,62,0.00,,,0.00,meteohub,2013-07-19 23:27:00,
2013-07-19 18:32:00,87.1,71.4,29.78,NW,315,8.0,13.0,60,0.00,,,0.00,meteohub,2013-07-19 23:32:00,
2013-07-19 18:37:00,87.6,71.6,29.78,NW,315,9.0,13.0,59,0.00,,,0.00,meteohub,2013-07-19 23:37:00,
2013-07-19 18:42:00,87.8,71.6,29.78,West,270,10.0,13.0,59,0.00,,,0.00,meteohub,2013-07-19 23:42:00,
2013-07-19 18:47:00,87.6,71.6,29.78,NW,315,10.0,11.0,59,0.00,,,0.00,meteohub,2013-07-19 23:47:00,
2013-07-19 18:49:00,87.6,71.6,29.78,NW,315,8.0,11.0,59,0.00,,,0.00,meteohub,2013-07-19 23:49:00,
2013-07-19 18:54:00,87.4,71.8,29.79,SW,225,3.0,11.0,60,0.00,,,0.00,meteohub,2013-07-19 23:54:00,
2013-07-19 18:59:00,86.9,69.8,29.79,NE,45,7.0,11.0,57,0.00,,,0.00,meteohub,2013-07-19 23:59:00,
2013-07-19 19:04:00,86.7,69.6,29.79,SW,225,4.0,12.0,57,0.00,,,0.00,meteohub,2013-07-20 00:04:00,
2013-07-19 19:09:00,86.5,69.4,29.79,SW,225,11.0,12.0,57,0.00,,,0.00,meteohub,2013-07-20 00:09:00,
2013-07-19 19:14:00,86.2,68.7,29.79,NW,315,9.0,12.0,56,0.00,,,0.00,meteohub,2013-07-20 00:14:00,
2013-07-19 19:19:00,86.0,68.0,29.79,NW,315,11.0,11.0,55,0.00,,,0.00,meteohub,2013-07-20 00:19:00,
2013-07-19 19:24:00,85.6,68.2,29.79,West,270,8.0,11.0,56,0.00,,,0.00,meteohub,2013-07-20 00:24:00,
2013-07-19 19:30:00,85.5,68.0,29.79,North,0,8.0,12.0,56,0.00,,,0.00,meteohub,2013-07-20 00:30:00,
2013-07-19 19:35:00,85.5,68.0,29.80,NE,45,6.0,12.0,56,0.00,,,0.00,meteohub,2013-07-20 00:35:00,
2013-07-19 19:40:00,85.3,67.8,29.80,East,90,3.0,12.0,56,0.00,,,0.00,meteohub,2013-07-20 00:40:00,
2013-07-19 19:45:00,84.9,68.0,29.80,NE,45,8.0,9.0,57,0.00,,,0.00,meteohub,2013-07-20 00:45:00,
2013-07-19 19:50:00,84.4,66.9,29.80,NE,45,14.0,14.0,56,0.00,,,0.00,meteohub,2013-07-20 00:50:00,
2013-07-19 19:55:00,83.5,65.7,29.80,West,270,5.0,8.0,55,0.00,,,0.00,meteohub,2013-07-20 00:55:00,
2013-07-19 20:00:00,82.8,64.9,29.80,North,0,4.0,14.0,55,0.00,,,0.00,meteohub,2013-07-20 01:00:00,
2013-07-19 20:05:00,82.2,64.4,29.81,North,0,5.0,12.0,55,0.00,,,0.00,meteohub,2013-07-20 01:05:00,
2013-07-19 20:10:00,81.7,63.9,29.81,East,90,4.0,12.0,55,0.00,,,0.00,meteohub,2013-07-20 01:10:00,
2013-07-19 20:15:00,81.3,63.7,29.81,NW,315,7.0,12.0,55,0.00,,,0.00,meteohub,2013-07-20 01:15:00,
2013-07-19 20:20:00,81.0,63.3,29.81,SE,135,4.0,8.0,55,0.00,,,0.00,meteohub,2013-07-20 01:20:00,
2013-07-19 20:25:00,80.4,63.3,29.81,West,270,7.0,8.0,56,0.00,,,0.00,meteohub,2013-07-20 01:25:00,
2013-07-19 20:30:00,80.2,63.1,29.81,West,270,6.0,8.0,56,0.00,,,0.00,meteohub,2013-07-20 01:30:00,
2013-07-19 20:36:00,79.9,63.3,29.81,NW,315,6.0,8.0,57,0.00,,,0.00,meteohub,2013-07-20 01:36:00,
2013-07-19 20:41:00,79.5,63.0,29.81,West,270,4.0,7.0,57,0.00,,,0.00,meteohub,2013-07-20 01:41:00,
2013-07-19 20:46:00,79.2,63.1,29.81,West,270,4.0,8.0,58,0.00,,,0.00,meteohub,2013-07-20 01:46:00,
2013-07-19 20:51:00,78.8,63.3,29.81,West,270,4.0,8.0,59,0.00,,,0.00,meteohub,2013-07-20 01:51:00,
2013-07-19 20:56:00,78.4,63.0,29.81,West,270,3.0,6.0,59,0.00,,,0.00,meteohub,2013-07-20 01:56:00,
2013-07-19 21:01:00,78.1,63.1,29.81,West,270,4.0,5.0,60,0.00,,,0.00,meteohub,2013-07-20 02:01:00,
2013-07-19 21:06:00,77.9,63.0,29.81,West,270,4.0,4.0,60,0.00,,,0.00,meteohub,2013-07-20 02:06:00,
2013-07-19 21:11:00,77.7,63.1,29.82,NW,315,3.0,4.0,61,0.00,,,0.00,meteohub,2013-07-20 02:11:00,
2013-07-19 21:16:00,77.5,63.0,29.83,NW,315,3.0,4.0,61,0.00,,,0.00,meteohub,2013-07-20 02:16:00,
2013-07-19 21:21:00,77.2,63.1,29.83,West,270,2.0,4.0,62,0.00,,,0.00,meteohub,2013-07-20 02:21:00,
2013-07-19 21:26:00,77.2,63.7,29.83,NW,315,4.0,4.0,63,0.00,,,0.00,meteohub,2013-07-20 02:26:00,
2013-07-19 21:31:00,77.2,63.7,29.83,NW,315,4.0,7.0,63,0.00,,,0.00,meteohub,2013-07-20 02:31:00,
2013-07-19 21:37:00,77.2,63.7,29.84,NW,315,4.0,7.0,63,0.00,,,0.00,meteohub,2013-07-20 02:37:00,
2013-07-19 21:42:00,76.8,63.7,29.84,SW,225,2.0,7.0,64,0.00,,,0.00,meteohub,2013-07-20 02:42:00,
2013-07-19 21:47:00,76.6,63.5,29.84,SW,225,3.0,5.0,64,0.00,,,0.00,meteohub,2013-07-20 02:47:00,
2013-07-19 21:52:00,76.5,63.9,29.84,WSW,248,4.0,5.0,65,0.00,,,0.00,meteohub,2013-07-20 02:52:00,
2013-07-19 21:57:00,76.3,64.0,29.84,NE,45,4.0,6.0,66,0.00,,,0.00,meteohub,2013-07-20 02:57:00,
2013-07-19 22:02:00,76.3,64.0,29.85,NW,315,2.0,6.0,66,0.00,,,0.00,meteohub,2013-07-20 03:02:00,
2013-07-19 22:07:00,76.3,64.0,29.85,NW,315,2.0,6.0,66,0.00,,,0.00,meteohub,2013-07-20 03:07:00,
2013-07-19 22:12:00,76.1,63.9,29.85,North,0,2.0,4.0,66,0.00,,,0.00,meteohub,2013-07-20 03:12:00,
2013-07-19 22:17:00,75.9,64.2,29.85,ENE,68,4.0,4.0,67,0.00,,,0.00,meteohub,2013-07-20 03:17:00,
2013-07-19 22:22:00,75.7,64.0,29.86,ENE,68,4.0,4.0,67,0.00,,,0.00,meteohub,2013-07-20 03:22:00,
2013-07-19 22:27:00,75.6,64.2,29.86,SE,135,2.0,5.0,68,0.00,,,0.00,meteohub,2013-07-20 03:27:00,
2013-07-19 22:32:00,75.4,64.0,29.86,NW,315,4.0,7.0,68,0.00,,,0.00,meteohub,2013-07-20 03:32:00,
2013-07-19 22:37:00,75.4,64.0,29.86,SW,225,4.0,7.0,68,0.00,,,0.00,meteohub,2013-07-20 03:37:00,
2013-07-19 22:42:00,75.0,63.7,29.85,SE,135,3.0,7.0,68,0.00,,,0.00,meteohub,2013-07-20 03:42:00,
2013-07-19 22:47:00,75.2,63.9,29.86,NE,45,3.0,5.0,68,0.00,,,0.00,meteohub,2013-07-20 03:47:00,
2013-07-19 22:52:00,74.8,64.0,29.86,NE,45,5.0,5.0,69,0.00,,,0.00,meteohub,2013-07-20 03:52:00,
2013-07-19 22:57:00,74.8,64.4,29.87,NNE,23,3.0,5.0,70,0.00,,,0.00,meteohub,2013-07-20 03:57:00,
2013-07-19 23:01:00,74.8,64.4,29.86,North,0,5.0,5.0,70,0.00,,,0.00,meteohub,2013-07-20 04:01:00,
2013-07-19 23:02:00,74.8,64.4,29.87,North,0,5.0,5.0,70,0.00,,,0.00,meteohub,2013-07-20 04:02:00,
2013-07-19 23:04:00,74.8,64.4,29.86,North,0,5.0,5.0,70,0.00,,,0.00,meteohub,2013-07-20 04:04:00,
2013-07-19 23:09:00,74.3,63.9,29.87,NE,45,4.0,6.0,70,0.00,,,0.00,meteohub,2013-07-20 04:09:00,
2013-07-19 23:14:00,74.5,64.0,29.87,NW,315,2.0,6.0,70,0.00,,,0.00,meteohub,2013-07-20 04:14:00,
2013-07-19 23:20:00,74.3,63.9,29.87,NE,45,2.0,5.0,70,0.00,,,0.00,meteohub,2013-07-20 04:20:00,
2013-07-19 23:25:00,74.1,64.0,29.87,NNE,23,2.0,5.0,71,0.00,,,0.00,meteohub,2013-07-20 04:25:00,
2013-07-19 23:30:00,73.9,63.9,29.87,East,90,3.0,5.0,71,0.00,,,0.00,meteohub,2013-07-20 04:30:00,
2013-07-19 23:35:00,73.6,64.0,29.88,WNW,293,5.0,5.0,72,0.00,,,0.00,meteohub,2013-07-20 04:35:00,
2013-07-19 23:40:00,73.6,64.0,29.88,North,0,3.0,5.0,72,0.00,,,0.00,meteohub,2013-07-20 04:40:00,
2013-07-19 23:45:00,73.2,63.7,29.88,NE,45,2.0,5.0,72,0.00,,,0.00,meteohub,2013-07-20 04:45:00,
2013-07-19 23:50:00,73.2,63.7,29.88,West,270,3.0,6.0,72,0.00,,,0.00,meteohub,2013-07-20 04:50:00,
2013-07-19 23:55:00,73.0,63.9,29.88,North,0,0.0,6.0,73,0.00,,,0.00,meteohub,2013-07-20 04:55:00,